Weather History for Russell, KS

Change the Weather History Date:

Monday, January 28, 2013

  Actual Average Record
Temperature  
Mean Temperature 52 °F -  
Max Temperature 75 °F 41 °F 75 °F (2013)
Min Temperature 28 °F 19 °F -4 °F (1951)
Degree Days  
Heating Degree Days 14    
Growing Degree Days 2 (Base 50)    
Moisture  
Dew Point 34 °F    
Average Humidity 82    
Maximum Humidity 100    
Minimum Humidity 20    
Precipitation  
Precipitation 0.00 in - - ()
Sea Level Pressure  
Sea Level Pressure 29.71 in    
Wind  
Wind Speed 7 mph (SSE)    
Max Wind Speed 29 mph    
Max Gust Speed 43 mph    
Visibility 4 miles    
Events Fog    
Averages and records for this station are not official NWS values.
T = Trace of Precipitation, MM = Missing Value Source: NWS Daily Summary

Daily Weather History Graph

Daily Weather History Graph

Search for Another Location

Airport:

Trip Planner

Search our weather history database for the weather conditions in past years. The results will help you decide how hot, cold, wet, or windy it might be!

Date:

Astronomy

Jan. 28, 2013 Rise Set
Actual Time 7:44 AM CST 5:52 PM CST
Civil Twilight 7:16 AM CST 6:20 PM CST
Nautical Twilight 6:44 AM CST 6:52 PM CST
Astronomical Twilight 6:12 AM CST 7:24 PM CST
Moon 7:47 PM CST (1/28) 8:12 AM CST (1/28)
Length of Visible Light 11h 04m
Length of Day
10h 07m
Full, 98% of the Moon is Illuminated
Jan 28
Full
Feb 3
Last Quarter
Feb 10
New
Feb 17
First Quarter
Feb 25
Full

Hourly Weather History & Observations

Time (CST) Temp. Windchill Dew Point Humidity Pressure Visibility Wind Dir Wind Speed Gust Speed Precip Events Conditions
12:13 AM 33.8 °F 30.8 °F 32.0 °F 93% 29.80 in 1.8 mi East 3.5 mph - N/A   Clear
12:30 AM 33.8 °F 27.7 °F 33.8 °F 100% 29.80 in 3.0 mi ESE 6.9 mph - N/A   Partly Cloudy
12:53 AM 34.0 °F 29.8 °F 33.1 °F 96% 29.81 in 3.0 mi ESE 4.6 mph - N/A   Partly Cloudy
1:31 AM 33.8 °F 29.6 °F 33.8 °F 100% 29.79 in 1.8 mi East 4.6 mph - N/A   Partly Cloudy
1:41 AM 33.8 °F 28.6 °F 33.8 °F 100% 29.78 in 0.8 mi ENE 5.8 mph - N/A   Clear
1:49 AM 33.8 °F 29.6 °F 33.8 °F 100% 29.78 in 1.5 mi East 4.6 mph - N/A   Clear
1:53 AM 33.1 °F 28.7 °F 32.0 °F 96% 29.79 in 0.8 mi East 4.6 mph - N/A   Clear
2:02 AM 30.2 °F 23.4 °F 30.2 °F 100% 29.78 in 0.2 mi East 6.9 mph - N/A Fog Light Freezing Fog
2:12 AM 30.2 °F 23.4 °F 30.2 °F 100% 29.78 in 0.2 mi East 6.9 mph - N/A Fog Light Freezing Fog
2:26 AM 32.0 °F 26.4 °F 30.2 °F 93% 29.78 in 0.2 mi East 5.8 mph - N/A Fog Fog
2:40 AM 32.0 °F 27.5 °F 30.2 °F 93% 29.78 in 0.2 mi ESE 4.6 mph - N/A Fog Fog
2:53 AM 30.9 °F 27.5 °F 30.9 °F 100% 29.80 in 0.2 mi ESE 3.5 mph - N/A Fog Light Freezing Fog
3:53 AM 28.0 °F - 28.0 °F 100% 29.81 in 0.2 mi Calm Calm - N/A Fog Light Freezing Fog
4:53 AM 28.9 °F - 27.0 °F 92% 29.80 in 0.2 mi Calm Calm - N/A Fog Light Freezing Fog
5:53 AM 28.9 °F 25.2 °F 27.0 °F 92% 29.79 in 0.2 mi North 3.5 mph - N/A Fog Light Freezing Fog
6:53 AM 28.9 °F 23.9 °F 28.9 °F 100% 29.81 in 0.2 mi NNW 4.6 mph - N/A Fog Light Freezing Fog
7:02 AM 30.2 °F 24.3 °F 28.4 °F 93% 29.77 in 0.5 mi NNW 5.8 mph - N/A Fog Light Freezing Fog
7:18 AM 30.2 °F 24.3 °F 30.2 °F 100% 29.76 in 1.2 mi North 5.8 mph - N/A   Overcast
7:27 AM 30.2 °F - 30.2 °F 100% 29.76 in 2.0 mi Calm Calm - N/A   Overcast
7:37 AM 30.2 °F - 30.2 °F 100% 29.76 in 1.8 mi North - - N/A   Overcast
7:48 AM 30.2 °F - 30.2 °F 100% 29.75 in 2.0 mi Calm Calm - N/A   Overcast
7:53 AM 30.9 °F - 30.0 °F 96% 29.80 in 1.5 mi Calm Calm - N/A   Overcast
8:04 AM 30.2 °F 26.7 °F 30.2 °F 100% 29.77 in 0.5 mi NW 3.5 mph - N/A Fog Light Freezing Fog
8:53 AM 32.0 °F - 30.9 °F 96% 29.79 in 0.2 mi Calm Calm - N/A Fog Fog
9:53 AM 35.1 °F - 35.1 °F 100% 29.79 in 0.2 mi Calm Calm - N/A Fog Fog
10:53 AM 37.0 °F 31.0 °F 36.0 °F 96% 29.78 in 0.2 mi South 8.1 mph - N/A Fog Fog
11:39 AM 41.0 °F 34.7 °F 41.0 °F 100% 29.71 in 2.0 mi SSW 10.4 mph - N/A   Overcast
11:48 AM 42.8 °F 36.6 °F 41.0 °F 93% 29.70 in 5.0 mi SSW 11.5 mph - N/A   Mostly Cloudy
11:53 AM 42.1 °F 35.2 °F 39.9 °F 92% 29.73 in 7.0 mi South 12.7 mph - N/A   Scattered Clouds
12:53 PM 55.0 °F - 39.9 °F 57% 29.67 in 10.0 mi SW 4.6 mph - N/A   Clear
1:53 PM 71.1 °F - 37.9 °F 30% 29.59 in 10.0 mi SSW 25.3 mph 34.5 mph N/A   Clear
2:53 PM 75.9 °F - 32.0 °F 20% 29.55 in 10.0 mi SSW 28.8 mph 42.6 mph N/A   Clear
3:53 PM 75.0 °F - 33.1 °F 22% 29.55 in 10.0 mi SSW 28.8 mph 42.6 mph N/A   Clear
4:53 PM 72.0 °F - 34.0 °F 25% 29.55 in 10.0 mi SSW 20.7 mph 33.4 mph N/A   Clear
5:53 PM 64.9 °F - 37.0 °F 36% 29.55 in 10.0 mi South 15.0 mph - N/A   Clear
6:53 PM 57.0 °F - 39.0 °F 51% 29.57 in 10.0 mi South 11.5 mph - N/A   Clear
7:53 PM 57.0 °F - 37.0 °F 47% 29.58 in 10.0 mi South 12.7 mph - N/A   Clear
8:53 PM 53.1 °F - 37.9 °F 57% 29.59 in 10.0 mi South 13.8 mph - N/A   Clear
9:53 PM 57.9 °F - 41.0 °F 53% 29.56 in 10.0 mi South 18.4 mph - N/A   Clear
10:53 PM 55.0 °F - 41.0 °F 59% 29.56 in 10.0 mi SSW 16.1 mph - N/A   Clear
11:11 PM 55.4 °F - 35.6 °F 47% 29.60 in 10.0 mi West 23.0 mph 28.8 mph N/A   Clear
11:33 PM 37.4 °F 26.9 °F 33.8 °F 87% 29.62 in 10.0 mi NW 20.7 mph 24.2 mph N/A   Clear
11:48 PM 37.4 °F 27.8 °F 33.8 °F 87% 29.63 in 9.0 mi NNW 17.3 mph 24.2 mph N/A   Scattered Clouds
11:53 PM 37.0 °F 26.7 °F 35.1 °F 93% 29.66 in 8.0 mi NW 19.6 mph - N/A   Mostly Cloudy